This is the latest recevied weather packets stored in our database for station/object EA1IOK-13. If no packets are shown the sender has not sent any weather packets the latest 10 day(s).
| Time | Temp. | Humidity | Pressure | Rain* | Wind** | Luminosity | Snow |
|---|---|---|---|---|---|---|---|
| 1778022349 | 8.89° C | 94% | 1016.4 hPa | 0 mm | - | - | - |
| 1778020593 | 8.33° C | 94% | 1016.4 hPa | 0 mm | - | - | - |
| 1778020549 | 8.33° C | 94% | 1016.4 hPa | 0 mm | - | - | - |
| 1778018828 | 8.89° C | 94% | 1016.5 hPa | 0 mm | - | - | - |
| 1778018749 | 8.89° C | 94% | 1016.5 hPa | 0 mm | - | - | - |
| 1778017179 | 8.89° C | 94% | 1016.4 hPa | 0 mm | - | - | - |
| 1778016950 | 8.89° C | 94% | 1016.4 hPa | 0 mm | - | - | - |
| 1778015149 | 9.44° C | 94% | 1016.4 hPa | 0 mm | - | - | - |
| 1778013350 | 8.33° C | 93% | 1016.3 hPa | 0 mm | - | - | - |
| 1778012450 | 9.44° C | 92% | 1016.1 hPa | 0 mm | - | - | - |
| 1778011549 | 9.44° C | 94% | 1015.9 hPa | 0 mm | - | - | - |
| 1778010653 | 9.44° C | 94% | 1015.8 hPa | 0 mm | - | - | - |
| 1778009979 | 10° C | 92% | 1015.5 hPa | 0 mm | - | - | - |
| 1778009749 | 10° C | 92% | 1015.5 hPa | 0 mm | - | - | - |
| 1778008956 | 10° C | 92% | 1015.4 hPa | 0 mm | - | - | - |
| 1778008850 | 10° C | 92% | 1015.4 hPa | 0 mm | - | - | - |
| 1778007049 | 12.22° C | 88% | 1015.2 hPa | 0 mm | - | - | - |
| 1778006379 | 11.67° C | 84% | 1015.1 hPa | 0 mm | - | - | - |
| 1778006150 | 11.67° C | 84% | 1015.1 hPa | 0 mm | - | - | - |
| 1778004350 | 11.67° C | 86% | 1015 hPa | 0 mm | - | - | - |
| 1778002779 | 12.22° C | 81% | 1015 hPa | 0 mm | - | - | - |
| 1778002549 | 12.22° C | 81% | 1015 hPa | 0 mm | - | - | - |
| 1778000749 | 14.44° C | 79% | 1014.9 hPa | 0 mm | - | - | - |
| 1777998950 | 14.44° C | 79% | 1014.7 hPa | 0 mm | - | - | - |
| 1777997200 | 15.56° C | 75% | 1014.6 hPa | 0 mm | - | - | - |
* Rain latest hour (hover to see other rain measurements)
** Current wind speed in m/s (hover to see current wind gust speed)